Regional Weather Roundup
Issued by NWS Jackson, KY

Home | Current Version | Previous Version | Graphics & Text | Print | Product List | Glossary On
Versions: 1 2 3 4 5 6 7 8 9 10 11 12 13 14 15 16 17 18 19 20 21 22 23 24 25 26 27
000
ASUS43 KJKL 270110
RWRJKL

EAST KENTUCKY HOURLY WEATHER ROUNDUP
NATIONAL WEATHER SERVICE JACKSON KY
800 PM EST SUN FEB 26 2017

NOTE: "FAIR" INDICATES FEW OR NO CLOUDS BELOW 12,000 FEET WITH
NO SIGNIFICANT WEATHER AND/OR OBSTRUCTIONS TO VISIBILITY.

* THESE REPORTS ARE NOT UNDER NWS QUALITY CONTROL AND MAY NOT
  REPORT WEATHER SUCH AS PRECIPITATION AND FOG.

KYZ079-080-083-085-087-088-110-112-115-119-120-270200
...EASTERN KENTUCKY...

CITY           SKY/WX    TMP DP  RH WIND       PRES   REMARKS
JACKSON        CLEAR     44  13  28 CALM      30.19S
LONDON         CLEAR     42  18  37 CALM      30.18S
SOMERSET*      CLOUDY    41  19  42 CALM      30.20R
MONTICELLO*    CLEAR     35  25  66 CALM      30.20R
WILLIAMSBURG*  CLEAR     43  18  36 SE6       30.18S
MIDDLESBORO*   CLEAR     39  25  56 CALM      30.22S
HARLAN APT*    CLEAR     41  18  38 N3        30.20S
PIKE CO APT*     N/A     44  14  29 CALM      30.20S
BIG SANDY APT* CLEAR     41  17  38 CALM      30.21R
MOREHEAD APT*  CLOUDY    43  12  28 CALM      30.21S
ASHLAND*       CLEAR     28  25  86 CALM      30.20R
$$

KYZ035-036-041-042-044-050-067-078-099-270200
...CENTRAL KENTUCKY...

CITY           SKY/WX    TMP DP  RH WIND       PRES   REMARKS
FLEMING/MASON* PTCLDY    41  18  38 S6        30.20S
DANVILLE*      CLOUDY    43  23  45 CALM      30.21R
LEXINGTON      CLOUDY    44  18  35 S6        30.19R
FRANKFORT      PTCLDY    42  17  36 S5        30.18R
LOUISVILLE     MOCLDY    47  14  26 S8        30.17R
LEBANON*         N/A     45  19  36 CALM      30.20R
GLASGOW*       PTCLDY    44  24  46 CALM      30.17S
BOWLING GREEN  CLEAR     45  22  40 NE3       30.17S
$$

KYZ091>093-OHZ055-061-077-WVZ005-015-034-035-042-270200
...SOUTHERN OHIO/WEST VIRGINIA...

CITY           SKY/WX    TMP DP  RH WIND       PRES   REMARKS
COVINGTON      MOCLDY    41  19  41 S6        30.16R
COLUMBUS       CLEAR     41  19  41 S6        30.17R
DAYTON         MOCLDY    40  16  37 S8        30.14R WCI  34
WILMINGTON     MOCLDY    38  23  55 S8        30.15S WCI  32
HUNTINGTON     CLEAR     44  11  26 S5        30.21R
CHARLESTON     PTCLDY    40  13  33 CALM      30.22R
PINEVILLE*     CLEAR     32  21  64 MISG      30.26R
BECKLEY        CLEAR     33  13  43 S3        30.20R
BLUEFIELD      CLEAR     36   8  31 S3        30.20R
LOGAN CO APT*    N/A     41  10  28 CALM      30.20R
$$

VAZ002-007-008-TNZ017-027-036-066-071-270200
...SOUTHWEST VIRGINIA/EAST TENNESSEE...

CITY           SKY/WX    TMP DP  RH WIND       PRES   REMARKS
WISE*          CLEAR     37  14  38 CALM      30.21R
JONESVILLE*      N/A     37  23  56 CALM      30.24R
ABINGDON*      CLEAR     38  20  47 CALM      30.22R
BRISTOL        PTCLDY    38  20  48 N3        30.23R
MORRISTOWN*    CLEAR     39  23  52 CALM      30.21R
SEVIERVILLE*   CLEAR     41  12  30 CALM      30.22R
KNOXVILLE      MOCLDY    46  22  38 E3        30.20R
LAFOLLETTE*    CLEAR     39  23  52 CALM      30.23S
OAK RIDGE      CLEAR     43  21  41 CALM      30.23R
CROSSVILLE     CLEAR     43  20  39 CALM      30.17F
NASHVILLE      MOCLDY    50  20  30 E6        30.14S
$$

...KEY TO REMARKS...
VSB - VISIBILITY IN MILES
WCI - WIND CHILL INDEX
HX  - HEAT INDEX

$$




USA.gov is the U.S. government's official web portal to all federal, state and local government web resources and services.